Greensboro, NC

12:27 PM EDT on June 25, 2018 (GMT -0400)
Piedmont Triad International

Weather History for KGSO - February, 2009

Change the Weather History Date:

Thursday, February 12, 2009

  Actual Average Record
Temperature  
Mean Temperature 55 °F 42 °F  
Max Temperature 63 °F 52 °F 81 °F (2017)
Min Temperature 46 °F 32 °F 5 °F (1936)
Degree Days  
Heating Degree Days 10 23  
Month to date heating degree days 229 290  
Since 1 July heating degree days 2488 2513  
Cooling Degree Days 0 0  
Month to date cooling degree days 0 0  
Year to date cooling degree days 0 0  
Growing Degree Days 6 (Base 50)    
Moisture  
Dew Point 27 °F    
Average Humidity 52    
Maximum Humidity 86    
Minimum Humidity 17    
Precipitation  
Precipitation 0.00 in 0.09 in 0.86 in (1993)
Month to date precipitation 0.31 1.17  
Year to date precipitation 2.89 4.23  
Snow  
Snow 0.00 in 0.10 in 7.00 in (2014)
Month to date snowfall 0.1 1.1  
Since 1 July snowfall 1.2 5.4  
Snow Depth 0.00 in    
Sea Level Pressure  
Sea Level Pressure 29.94 in    
Wind  
Wind Speed 17 mph (West)    
Max Wind Speed 32 mph    
Max Gust Speed 39 mph    
Visibility 10 miles    
Events      
T = Trace of Precipitation, MM = Missing Value Source: NWS Daily Summary

Daily Weather History Graph

Daily Weather History Graph

Search for Another Location

Airport or City:

Astronomy

Feb. 12, 2009 Rise Set
Actual Time 7:10 AM EST 5:58 PM EST
Civil Twilight 6:43 AM EST 6:24 PM EST
Nautical Twilight 6:13 AM EST 6:54 PM EST
Astronomical Twilight 5:43 AM EST 7:24 PM EST
Moon 9:42 PM EST (2/12) 8:37 AM EST (2/12)
Length of Visible Light 11h 40m
Length of Day
10h 48m
Waning Gibbous, 88% of the Moon is Illuminated
Feb 12
Waning Gibbous
Feb 16
Last Quarter
Feb 24
New
Mar 4
First Quarter
Mar 10
Full

Hourly Weather History & Observations

Time (EST) Temp. Dew Point Humidity Pressure Visibility Wind Dir Wind Speed Gust Speed Precip Events Conditions
12:54 AM 57.9 °F 41.0 °F 53% 29.79 in 10.0 mi WSW 24.2 mph 28.8 mph N/A   Partly Cloudy
1:54 AM 55.0 °F 37.0 °F 51% 29.81 in 10.0 mi WSW 13.8 mph - N/A   Clear
2:54 AM 53.1 °F 36.0 °F 52% 29.82 in 10.0 mi West 13.8 mph - N/A   Clear
3:54 AM 52.0 °F 36.0 °F 54% 29.83 in 10.0 mi WSW 12.7 mph - N/A   Clear
4:54 AM 52.0 °F 35.1 °F 53% 29.83 in 10.0 mi WSW 15.0 mph - N/A   Clear
5:54 AM 51.1 °F 35.1 °F 54% 29.85 in 10.0 mi WSW 11.5 mph - N/A   Clear
6:54 AM 51.1 °F 35.1 °F 54% 29.88 in 10.0 mi West 10.4 mph - N/A   Clear
7:54 AM 52.0 °F 35.1 °F 53% 29.91 in 10.0 mi WSW 11.5 mph - N/A   Partly Cloudy
8:54 AM 55.0 °F 35.1 °F 47% 29.92 in 10.0 mi WSW 12.7 mph - N/A   Partly Cloudy
9:54 AM 59.0 °F 34.0 °F 39% 29.94 in 10.0 mi West 20.7 mph 24.2 mph N/A   Partly Cloudy
10:54 AM 60.1 °F 28.0 °F 30% 29.95 in 10.0 mi West 25.3 mph 38.0 mph N/A   Partly Cloudy
11:54 AM 62.1 °F 25.0 °F 24% 29.96 in 10.0 mi West 21.9 mph 29.9 mph N/A   Partly Cloudy
12:54 PM 63.0 °F 21.0 °F 20% 29.95 in 10.0 mi WNW 28.8 mph 35.7 mph N/A   Partly Cloudy
1:54 PM 63.0 °F 21.0 °F 20% 29.96 in 10.0 mi WNW 25.3 mph 34.5 mph N/A   Clear
2:54 PM 63.0 °F 19.0 °F 18% 29.96 in 10.0 mi WNW 19.6 mph - N/A   Clear
3:54 PM 63.0 °F 17.1 °F 17% 29.96 in 10.0 mi West 15.0 mph 32.2 mph N/A   Clear
4:54 PM 60.1 °F 18.0 °F 20% 29.98 in 10.0 mi WNW 16.1 mph - N/A   Clear
5:54 PM 57.9 °F 19.0 °F 22% 30.00 in 10.0 mi West 19.6 mph 28.8 mph N/A   Clear
6:54 PM 55.9 °F 19.0 °F 24% 30.01 in 10.0 mi West 18.4 mph 25.3 mph N/A   Clear
7:54 PM 54.0 °F 19.9 °F 26% 30.01 in 10.0 mi West 16.1 mph - N/A   Clear
8:54 PM 52.0 °F 21.9 °F 31% 30.03 in 10.0 mi West 12.7 mph - N/A   Clear
9:54 PM 51.1 °F 23.0 °F 33% 30.04 in 10.0 mi West 13.8 mph - N/A   Clear
10:54 PM 50.0 °F 21.9 °F 33% 30.04 in 10.0 mi West 10.4 mph - N/A   Clear
11:54 PM 46.9 °F 23.0 °F 39% 30.05 in 10.0 mi West 9.2 mph - N/A   Clear